Location: Burland Observatory
(39.4088°N, 105.4217°W)
Time: 04:35:18
(UTC-07:00)

S-56A Canister/Altair - Pass Details

Date: 19 December 2019
Orbit: 634 x 2498 km, 38.9° (Epoch: 22 January)

Event Time Altitude Azimuth Distance (km) Brightness Sun altitude
Rises 05:48:11 0° 209° (SSW) 4,339 11.3 -16.5°
Reaches altitude 10° 05:51:02 10° 200° (SSW) 3,610 10.9 -16.0°
Maximum altitude 05:59:40 37° 138° (SE) 2,685 10.8 -14.4°
Drops below altitude 10° 06:11:24 10° 78° (ENE) 4,917 12.6 -12.3°
Sets 06:15:59 0° 71° (ENE) 6,075 13.0 -11.5°
